Theta_e
295 296 296 297 298 299 299 300 301 304 307 312 318 320 319 319 319 318 318 317 316 317 317 316 316 318 316 317 317 316 315 313 309 313 316 308 302 304 299 303 301 303 303
294 294 295 295 295 295 296 297 298 299 302 304 306 310 316 319 320 318 318 318 316 316 316 316 316 317 316 317 317 315 315 316 313 310 313 297 302 301 302 299 298 300 302
293 293 293 292 293 293 294 294 295 296 297 299 301 303 306 310 315 319 318 318 318 317 317 316 316 317 316 317 317 316 316 316 316 313 312 299 299 298 297 296 296 295 296
291 291 291 290 290 291 292 292 293 294 294 295 297 298 301 303 306 310 316 318 318 318 318 318 317 317 316 317 316 316 316 315 315 313 312 296 294 291 296 292 289 291 291
288 288 288 288 288 289 289 290 292 293 293 294 294 296 297 299 302 303 303 306 312 316 317 318 318 314 305 311 317 317 316 314 313 311 310 296 288 288 291 292 291 289 288
285 284 285 285 285 286 288 289 290 291 292 292 293 293 294 295 295 295 296 298 300 304 311 316 317 301 302 300 302 304 313 316 313 312 311 300 297 296 294 291 289 286 285
281 281 281 282 283 284 286 287 287 288 290 290 291 292 292 293 293 293 293 295 297 299 302 307 312 314 303 314 306 301 302 303 306 313 312 308 304 298 293 290 289 290 289
278 278 279 280 279 281 284 285 285 287 287 288 289 290 290 292 293 293 292 294 296 297 299 301 305 308 311 307 311 312 311 310 307 307 307 308 307 298 296 295 291 289 286
275 275 276 277 277 278 281 283 284 285 285 286 287 288 288 290 292 292 293 293 293 293 296 299 301 302 301 300 305 302 301 301 296 296 298 301 301 298 296 292 287 287 282
273 273 275 276 275 276 278 282 283 283 284 285 286 287 287 289 291 292 293 292 290 290 291 292 292 293 296 296 299 300 297 299 291 288 291 293 296 295 294 295 290 288 280
272 273 273 274 274 276 278 280 281 282 282 283 285 286 287 288 289 291 292 292 291 290 289 290 292 293 295 296 296 296 297 297 290 287 287 287 288 290 290 288 291 291 287
270 270 270 272 273 275 275 276 279 280 281 281 282 283 285 286 288 289 291 292 293 290 289 290 291 292 293 294 294 296 296 291 287 286 286 285 285 285 281 282 281 280 282
266 267 268 270 272 272 272 273 274 278 279 280 280 280 282 284 284 288 289 289 290 289 290 290 291 291 292 292 293 293 289 287 287 286 286 286 284 280 278 276 275 275 274
264 266 267 268 268 269 270 271 273 276 276 277 277 278 279 280 281 284 286 287 287 288 289 290 290 290 290 291 287 290 288 287 288 288 286 280 278 279 278 279 276 276 274
264 264 265 266 266 266 268 269 272 272 273 274 277 278 276 275 278 284 285 284 285 287 288 288 288 288 287 286 286 286 285 285 286 286 280 280 280 279 277 278 276 275 273
261 262 263 263 263 265 266 266 270 271 275 277 277 276 277 280 282 282 282 284 286 287 287 286 287 287 287 287 286 285 284 284 286 284 284 283 281 279 276 276 277 276 273
260 260 261 261 262 263 263 263 262 266 270 271 274 276 277 277 277 279 281 282 284 285 284 286 286 287 287 287 286 285 285 285 284 282 281 280 279 278 276 275 274 273 271
258 258 259 260 261 261 262 262 262 261 261 264 270 271 272 274 275 276 277 278 276 283 284 285 286 286 287 287 287 286 285 285 282 282 281 280 279 277 275 275 274 272 270
258 259 260 260 260 260 260 261 261 262 262 263 263 266 268 271 272 273 275 273 273 276 281 284 285 286 287 287 287 287 286 284 283 282 282 280 278 277 276 275 274 271 269
258 259 259 259 259 259 260 260 260 260 260 260 261 262 263 263 264 266 268 269 270 273 276 281 284 285 286 287 287 287 285 284 282 282 280 279 277 277 275 273 271 269 269
257 257 258 258 258 258 258 258 258 259 258 259 260 261 267 265 264 264 264 265 267 269 272 275 281 285 286 287 287 287 286 284 283 282 281 279 277 276 275 274 270 269 268
257 258 258 258 258 258 258 258 258 258 258 258 259 260 266 262 262 262 263 264 266 268 270 274 277 283 286 287 287 286 286 285 283 281 279 277 276 275 273 271 269 268 265
258 257 257 257 258 258 258 258 258 258 258 258 259 259 259 260 261 261 262 263 265 266 268 270 273 276 284 287 287 287 286 285 284 282 279 276 275 272 271 270 268 266 265
257 256 256 257 257 258 257 257 257 257 257 257 258 258 259 259 260 261 262 263 264 266 267 269 271 274 277 286 287 287 287 286 285 281 279 276 273 272 270 269 267 267 264
256 256 257 257 256 256 256 256 256 257 257 257 257 258 258 259 259 260 262 263 264 265 267 268 271 274 276 282 286 286 286 285 282 280 277 275 272 270 269 268 267 266 264
257 257 256 256 255 256 256 256 256 256 256 256 257 257 258 258 259 260 261 262 263 264 267 270 272 272 276 276 286 286 284 281 279 277 276 273 271 270 269 268 266 264 263
Wind_Speed
7 8 8 8 8 6 6 8 8 9 9 9 10 11 12 13 13 14 15 15 15 15 15 15 17 17 12 13 13 12 12 13 16 14 13 7 9 11 8 11 10 12 12
6 5 7 8 9 9 8 9 10 10 10 10 10 11 11 12 13 14 15 13 16 17 16 16 18 13 17 16 12 15 14 15 13 21 14 7 12 13 13 14 10 10 11
6 5 6 7 8 9 9 10 10 11 11 11 10 11 11 12 13 13 14 15 15 17 16 17 17 17 17 14 16 15 14 14 15 16 15 5 8 6 8 7 10 8 5
8 8 9 9 10 9 11 11 10 10 11 12 11 11 11 11 11 12 13 14 15 16 17 18 18 18 19 17 16 17 15 14 14 16 14 5 5 4 7 10 6 5 7
6 6 8 9 9 9 9 10 11 11 10 12 12 11 11 11 7 11 12 14 16 16 16 16 17 18 20 19 13 16 16 14 13 11 12 4 5 5 14 8 9 6 3
8 8 9 9 8 8 9 10 10 10 10 11 11 11 11 9 16 15 15 14 14 14 16 15 15 13 15 20 22 25 20 14 16 13 14 10 15 13 11 14 12 11 6
8 9 8 8 9 9 10 10 11 11 11 11 11 11 12 12 18 19 17 12 14 13 15 14 13 10 11 14 17 22 24 27 27 21 21 15 16 17 16 15 15 15 10
8 9 11 11 12 11 10 11 12 11 12 11 12 12 13 11 16 18 19 13 11 14 14 16 16 15 13 10 13 16 16 15 15 12 16 18 14 14 21 20 21 11 9
8 8 9 10 10 9 9 9 11 11 11 12 12 13 12 11 17 17 16 11 10 12 12 13 15 16 16 15 15 15 14 13 7 12 18 17 13 19 17 11 12 14 6
12 13 12 11 11 12 12 12 11 11 11 10 12 12 14 14 14 16 16 8 10 9 9 9 13 14 19 19 14 15 15 15 8 5 3 5 11 18 25 19 17 16 8
12 12 11 11 11 10 11 10 10 10 10 10 10 9 9 9 13 19 18 12 9 10 10 10 9 16 20 22 20 13 15 10 7 3 3 2 4 9 7 4 11 13 14
11 12 12 11 10 9 12 11 11 10 10 11 11 11 8 7 10 16 20 17 17 11 13 10 10 20 24 24 19 20 19 7 5 5 5 4 5 3 4 5 8 8 6
12 11 10 11 10 11 10 11 10 9 9 10 9 10 11 9 10 17 20 22 20 13 11 16 22 20 22 17 18 22 10 5 6 6 7 5 4 7 7 9 10 16 15
11 12 11 11 12 10 8 8 8 8 8 9 10 11 11 11 12 10 11 13 19 15 17 14 15 16 18 15 5 5 4 5 6 6 6 6 6 9 9 5 9 8 11
11 11 11 9 11 11 9 8 8 10 11 11 10 11 13 13 12 23 21 16 16 17 21 13 11 10 6 4 2 2 2 1 4 3 6 7 10 9 7 8 9 8 6
10 9 9 9 9 9 9 10 14 18 20 21 25 20 12 22 28 31 34 32 30 29 14 13 13 10 8 7 6 5 4 5 5 5 6 7 8 12 13 8 7 6 13
11 12 9 10 8 9 10 10 13 12 19 19 21 21 24 27 30 30 32 34 32 27 13 12 13 10 9 7 7 7 8 7 5 6 6 7 8 6 13 12 9 9 10
9 12 9 8 9 9 9 10 10 11 12 12 13 20 24 27 28 29 31 30 16 13 12 12 12 12 9 9 8 8 7 6 6 7 8 8 10 9 8 11 10 12 13
9 8 8 9 9 10 10 10 10 11 12 12 11 14 15 25 29 28 25 11 13 13 12 13 14 12 11 10 9 8 9 9 9 9 9 8 8 9 9 9 11 14 16
9 12 12 9 9 9 9 10 10 11 12 11 11 11 11 14 12 12 10 11 12 13 13 15 14 14 11 11 11 9 9 9 9 9 9 10 10 10 11 11 11 13 11
8 9 12 10 9 9 10 10 11 11 12 12 12 12 25 17 14 13 12 12 13 13 14 15 16 14 12 11 11 11 10 10 11 11 10 10 10 11 9 10 11 12 13
9 9 10 10 11 11 11 11 12 13 13 14 14 14 27 13 13 13 13 13 13 14 14 15 16 16 13 12 11 12 11 12 11 10 10 10 11 11 11 12 11 11 14
10 11 11 11 11 14 13 12 12 13 14 15 15 15 13 13 13 14 15 14 14 14 14 14 16 17 16 13 11 12 13 12 12 12 12 11 12 12 13 14 14 13 13
10 12 12 12 12 12 13 13 13 16 16 15 15 15 15 15 15 17 16 15 15 16 15 15 15 23 19 17 11 11 12 11 10 12 16 14 13 15 14 14 15 17 15
12 12 12 12 12 12 13 14 14 15 15 15 16 15 16 16 16 17 16 16 16 16 17 17 16 21 22 31 20 17 16 16 14 15 12 15 17 21 17 16 18 16 18
12 12 12 11 12 12 13 14 15 15 15 15 15 16 16 16 16 17 16 17 16 16 19 15 18 28 31 26 22 21 18 17 18 22 15 14 16 14 14 17 23 16 19
Wind_Direction
27 13 14 11 7 17 15 353 342 329 324 313 295 271 257 247 236 232 232 232 232 236 232 231 234 233 231 228 228 227 227 224 243 250 244 192 204 205 190 196 186 194 189
3 19 18 7 360 0 7 359 346 338 329 323 316 308 297 273 255 242 244 238 233 234 235 233 236 233 234 230 228 227 227 229 235 248 234 190 205 204 205 191 197 203 180
0 360 34 12 4 356 347 350 348 340 336 330 328 322 316 312 301 272 251 249 243 242 239 235 238 236 238 235 233 233 231 235 230 237 243 206 203 197 178 195 182 188 177
6 3 8 6 353 353 341 345 344 337 334 330 328 324 318 315 310 302 294 268 254 248 244 241 240 239 240 242 239 239 238 239 238 240 240 194 182 201 186 180 181 179 155
18 20 0 351 343 344 340 340 339 342 335 329 324 329 327 321 319 332 326 316 301 272 258 253 249 245 242 239 242 244 241 240 244 251 245 196 175 167 192 178 178 168 131
6 6 4 341 345 341 339 335 331 335 334 331 327 332 331 324 322 320 323 313 302 295 290 268 254 241 242 241 239 241 243 249 249 245 254 223 215 212 190 181 156 152 175
11 4 351 336 341 344 339 331 330 327 326 324 326 333 326 324 326 323 305 302 299 295 291 291 288 265 243 241 237 243 249 250 251 261 265 256 230 197 178 176 179 175 166
8 357 347 347 340 331 335 332 330 327 319 322 326 325 321 320 319 316 312 305 296 301 300 293 293 291 289 269 248 250 247 245 242 244 251 261 235 195 190 184 175 144 111
360 344 341 337 326 325 310 309 316 322 326 324 319 315 316 314 315 305 324 315 303 298 294 296 289 290 290 291 284 268 256 253 237 251 248 259 229 189 176 138 153 149 129
349 343 342 337 328 320 310 319 323 320 312 308 312 313 313 313 310 304 323 321 309 306 297 287 285 275 279 276 277 276 264 260 230 228 229 167 163 171 175 175 168 161 134
336 331 326 318 309 298 304 313 310 309 303 301 299 301 298 312 323 326 319 317 314 316 315 314 306 297 284 280 273 270 266 264 206 155 112 98 127 155 174 156 178 172 158
329 321 315 314 317 324 325 315 310 308 308 311 313 312 310 310 315 324 323 311 310 310 311 305 302 307 303 293 289 276 267 177 160 163 154 157 148 138 114 87 84 73 39
327 318 315 318 322 327 321 316 315 310 310 313 314 313 314 319 319 318 320 321 317 310 299 298 300 303 302 296 283 272 216 173 178 186 180 173 150 122 115 97 85 89 70
321 327 326 326 322 319 316 309 303 309 313 309 310 308 308 315 313 314 318 317 319 316 311 305 296 289 280 278 287 242 204 198 195 207 177 124 135 140 145 148 129 120 104
330 329 327 318 316 318 313 305 306 308 300 298 298 302 309 305 300 305 313 316 312 305 308 305 299 299 287 272 275 242 265 237 203 166 168 168 166 156 146 156 153 142 129
327 324 320 318 319 315 312 307 300 303 300 310 304 293 288 290 304 310 309 304 305 309 299 295 293 291 283 274 251 237 230 228 217 181 191 188 206 171 153 154 162 146 142
322 320 315 316 311 309 310 307 310 313 307 305 300 301 307 305 305 305 309 307 305 306 286 284 283 280 274 260 250 240 237 222 196 187 185 179 171 211 160 149 160 139 137
300 297 292 296 295 298 298 300 300 304 309 311 306 308 303 304 306 307 308 308 302 286 283 285 281 280 273 261 250 239 237 209 186 195 188 178 176 175 182 160 170 155 145
300 293 289 290 285 287 289 289 290 292 296 298 303 297 300 302 306 303 303 293 294 295 292 281 282 277 267 265 253 241 225 215 207 193 197 181 186 177 185 168 164 158 144
290 291 290 289 286 287 288 290 292 292 293 293 293 294 303 300 298 303 301 295 290 289 289 284 281 276 270 266 260 244 229 214 205 199 192 181 175 179 171 168 167 152 155
300 294 290 287 291 290 290 288 287 287 287 287 287 288 290 295 297 292 292 286 283 280 281 282 282 276 268 261 257 250 234 220 211 205 193 184 175 180 172 166 159 146 137
290 291 296 294 294 291 286 284 285 286 287 289 292 290 294 288 283 281 279 277 277 278 280 281 284 285 264 256 253 252 235 226 208 199 188 181 172 166 160 155 156 151 144
298 297 294 290 287 288 286 284 285 285 285 285 288 290 289 284 281 280 280 280 278 277 278 277 277 281 277 255 240 238 238 226 211 193 184 175 171 164 161 158 155 155 153
292 289 287 287 288 288 288 288 287 285 286 285 286 285 285 284 282 281 281 280 279 277 278 275 275 274 281 266 245 233 230 225 207 190 179 174 168 163 159 157 156 157 146
292 290 289 291 291 290 291 287 287 286 284 282 282 281 281 280 279 278 278 279 279 279 278 276 273 274 276 280 242 234 220 208 184 173 171 168 168 167 162 158 155 149 147
292 293 294 293 289 288 286 287 285 284 284 282 280 279 279 278 278 277 278 277 277 278 281 279 280 282 278 278 247 232 210 186 176 170 162 161 162 163 161 154 152 145 144